FENGYUN 2D

Last updated on Feb. 5, 2019, 3:02 a.m. UTC

1 29640U 06053A   19035.16425094 -.00000029  00000-0  10000-3 0  9990
2 29640   5.9836  54.7591 0011880 318.2598 230.5945  0.98192293 44581
UTC
Height (km)
Latitude
Longitude
Inclination
Orbital Period
UTC large
Height (km)
Speed (km/s)
/
Latitude / Longitude
Inclination (degrees)
Orbital Period (minutes)
Azimuth
Elevation
Range (km)
Doppler Factor
iOS Compass Heading
iOS Angle

Next 30 passes for location: Hong Kong

Rise time Rise Azimuth (degrees) Set time Set Azimuth (degrees) Duration Max altitude (degrees)

No matching passes for this satellites